Regional Weather Roundup
Issued by NWS

Home | Current Version | Previous Version | Graphics & Text | Print | Product List | Glossary On
Versions: 1 2 3 4 5 6 7 8 9 10 11 12 13 14 15 16 17 18 19 20 21 22 23 24 25 26 27 28 29 30 31 32 33 34 35 36 37 38 39 40 41 42 43 44 45 46 47 48 49 50
000
ASUS43 KTOP 231808
RWRKS

WEATHER ROUNDUP FOR KANSAS
NATIONAL WEATHER SERVICE GOODLAND KS
1200 PM CST THU FEB 23 2017

NOTE:  "FAIR" INDICATES FEW OR NO CLOUDS BELOW 12,000 FEET WITH NO
SIGNIFICANT WEATHER AND/OR OBSTRUCTIONS TO VISIBILITY.

KSZ001>006-013>018-027>032-041>047-231900-
NORTHWEST KANSAS

CITY           SKY/WX    TMP DP  RH WIND       PRES   REMARKS
GOODLAND       CLOUDY    33  33 100 NE16      29.52F WCI  23
6HR MIN TEMP:  33; 6HR MAX TEMP:  36;

HAYS           SUNNY     53  37  54 NE18G24   29.51F
HILL CITY      CLOUDY    43  35  73 E17G26    29.56F
6HR MIN TEMP:  39; 6HR MAX TEMP:  43;

RUSSELL        SUNNY     54  38  54 E13G24    29.50F
6HR MIN TEMP:  43; 6HR MAX TEMP:  54;

$$

KSZ061>065-074>080-084>089-231900-
SOUTHWEST KANSAS

CITY           SKY/WX    TMP DP  RH WIND       PRES   REMARKS
DODGE CITY     SUNNY     65  39  38 SE12      29.44F
6HR MIN TEMP:  47; 6HR MAX TEMP:  65; 6HR PCP: TRACE;

ELKHART          N/A     68  25  20 SW28        N/A
GARDEN CITY    MOSUNNY   65  36  34 E17       29.41F
6HR MIN TEMP:  40; 6HR MAX TEMP:  65;

GREAT BEND     SUNNY     59  41  51 E12       29.47F
LIBERAL        SUNNY     75  36  23 SW29G43   29.41F
PRATT          MOSUNNY   58  40  51 SE7       29.46F
6HR MIN TEMP:  46; 6HR MAX TEMP:  58;

$$

KSZ066>073-081>083-090>101-231900-
SOUTHEAST KANSAS

CITY           SKY/WX    TMP DP  RH WIND       PRES   REMARKS
CHANUTE        CLOUDY    69  51  52 MISG      29.50F
6HR MIN TEMP:  51; 6HR MAX TEMP:  70;

COFFEYVILLE    MOSUNNY   74  52  46 SW15      29.49F
6HR MIN TEMP:  45; 6HR MAX TEMP:  74;

HUTCHINSON     MOSUNNY   59  43  55 E13       29.47F
6HR MIN TEMP:  50; 6HR MAX TEMP:  60;

MEDICINE LODGE   N/A     58  44  60 SE6       29.45F
NEWTON         MOSUNNY   61  49  64 SE15      29.47F
PARSONS        PTSUNNY   72  50  45 S12       29.50F
6HR MIN TEMP:  54; 6HR MAX TEMP:  72;

WICHITA INTL   PTSUNNY   65  49  56 SE10      29.46F
6HR MIN TEMP:  49; 6HR MAX TEMP:  66;

WICHITA JABRA  MOSUNNY   65  51  60 SE15G21   29.46F
6HR MIN TEMP:  46; 6HR MAX TEMP:  66;

WICHITA MCCONL SUNNY     66  48  53 SE12      29.45F
WINFIELD       SUNNY     69  48  47 S14       29.47F
6HR MIN TEMP:  44; 6HR MAX TEMP:  69;

$$

KSZ007>012-019>026-033>040-048>060-102>105-231900-
NORTHEAST KANSAS

CITY           SKY/WX    TMP DP  RH WIND       PRES   REMARKS
CONCORDIA      CLOUDY    48  37  65 E16G26    29.56F
6HR MIN TEMP:  42; 6HR MAX TEMP:  50;

EMPORIA        CLOUDY    61  47  59 E15G24    29.48F
6HR MIN TEMP:  49; 6HR MAX TEMP:  61;

LAWRENCE       PTSUNNY   53  42  66 E20G26    29.54F
6HR MIN TEMP:  51; 6HR MAX TEMP:  53;

MANHATTAN      MOSUNNY   56  41  57 E15       29.53S
6HR MIN TEMP:  49; 6HR MAX TEMP:  59; 6HR PCP: TRACE;

MARYSVILLE     PTSUNNY   45  37  76 E20       29.57F
OLATHE IND     CLOUDY    53  43  68 E18       29.54F
6HR MIN TEMP:  51; 6HR MAX TEMP:  53; 6HR PCP: TRACE;

OLATHE EXE     CLOUDY    52  44  74 E17G26    29.53F
6HR MIN TEMP:  49; 6HR MAX TEMP:  52; 6HR PCP: TRACE;

SALINA         CLOUDY    61  42  49 E16       29.49F
6HR MIN TEMP:  52; 6HR MAX TEMP:  61;

TOPEKA BILLARD PTSUNNY   55  42  61 E23       29.53F
6HR MIN TEMP:  50; 6HR MAX TEMP:  56;

TOPEKA FORBES  CLOUDY    56  42  59 E23G29    29.52F
6HR MIN TEMP:  51; 6HR MAX TEMP:  56;

$$




USA.gov is the U.S. government's official web portal to all federal, state and local government web resources and services.